Time,TemperatureF,DewpointF,PressureIn,WindDirection,WindDirectionDegrees,WindSpeedMPH,WindSpeedGustMPH,Humidity,HourlyPrecipIn,Conditions,Clouds,dailyrainin,SoftwareType,DateUTC
2013-01-23 00:01:00,13.8,9.6,30.25,SE,133,3.0,5.0,83,0.00,,,0.00,WeatherCatV1.10B1784,2013-01-23 06:01:00,
2013-01-23 00:06:00,13.7,9.5,30.24,SE,142,5.0,10.0,83,0.00,,,0.00,WeatherCatV1.10B1784,2013-01-23 06:06:00,
2013-01-23 00:11:00,13.5,9.3,30.24,ESE,116,3.0,9.0,83,0.00,,,0.00,WeatherCatV1.10B1784,2013-01-23 06:11:00,
2013-01-23 00:16:00,13.3,9.1,30.24,SSW,204,0.0,3.0,83,0.00,,,0.00,WeatherCatV1.10B1784,2013-01-23 06:16:00,
2013-01-23 00:21:00,13.1,8.9,30.24,South,188,0.0,2.0,83,0.00,,,0.00,WeatherCatV1.10B1784,2013-01-23 06:21:00,
2013-01-23 00:26:00,12.9,8.7,30.24,SE,131,0.0,4.0,83,0.00,,,0.00,WeatherCatV1.10B1784,2013-01-23 06:26:00,
2013-01-23 00:31:00,12.8,8.6,30.24,SE,134,2.0,4.0,83,0.00,,,0.00,WeatherCatV1.10B1784,2013-01-23 06:31:00,
2013-01-23 00:36:00,12.6,8.4,30.24,SSE,159,1.0,4.0,83,0.00,,,0.00,WeatherCatV1.10B1784,2013-01-23 06:36:00,
2013-01-23 00:41:00,12.5,8.3,30.23,South,183,1.0,3.0,83,0.00,,,0.00,WeatherCatV1.10B1784,2013-01-23 06:41:00,
2013-01-23 00:46:00,12.3,8.1,30.23,SE,133,2.0,3.0,83,0.00,,,0.00,WeatherCatV1.10B1784,2013-01-23 06:46:00,
2013-01-23 00:51:00,12.2,8.3,30.23,SE,139,1.0,3.0,84,0.00,,,0.00,WeatherCatV1.10B1784,2013-01-23 06:51:00,
2013-01-23 00:56:00,12.1,8.2,30.23,SSE,164,1.0,2.0,84,0.00,,,0.00,WeatherCatV1.10B1784,2013-01-23 06:56:00,
2013-01-23 01:01:00,11.9,8.0,30.22,ESE,122,2.0,5.0,84,0.00,,,0.00,WeatherCatV1.10B1784,2013-01-23 07:01:00,
2013-01-23 01:06:00,11.8,7.9,30.22,SE,126,1.0,4.0,84,0.00,,,0.00,WeatherCatV1.10B1784,2013-01-23 07:06:00,
2013-01-23 01:11:00,11.7,7.8,30.22,ESE,118,3.0,3.0,84,0.00,,,0.00,WeatherCatV1.10B1784,2013-01-23 07:11:00,
2013-01-23 01:16:00,11.6,7.7,30.22,South,182,0.0,5.0,84,0.00,,,0.00,WeatherCatV1.10B1784,2013-01-23 07:16:00,
2013-01-23 01:21:00,11.5,7.9,30.22,SE,141,1.0,3.0,85,0.00,,,0.00,WeatherCatV1.10B1784,2013-01-23 07:21:00,
2013-01-23 01:26:00,11.5,7.9,30.22,SSE,167,1.0,3.0,85,0.00,,,0.00,WeatherCatV1.10B1784,2013-01-23 07:26:00,
2013-01-23 01:31:00,11.4,7.8,30.22,SE,141,1.0,4.0,85,0.00,,,0.00,WeatherCatV1.10B1784,2013-01-23 07:31:00,
2013-01-23 01:36:00,11.3,7.7,30.22,South,184,0.0,1.0,85,0.00,,,0.00,WeatherCatV1.10B1784,2013-01-23 07:36:00,
2013-01-23 01:41:00,11.3,7.7,30.23,South,180,0.0,0.0,85,0.00,,,0.00,WeatherCatV1.10B1784,2013-01-23 07:41:00,
2013-01-23 01:46:00,11.2,7.6,30.23,South,180,0.0,0.0,85,0.00,,,0.00,WeatherCatV1.10B1784,2013-01-23 07:46:00,
2013-01-23 01:51:00,11.0,7.4,30.23,South,180,0.0,0.0,85,0.00,,,0.00,WeatherCatV1.10B1784,2013-01-23 07:51:00,
2013-01-23 01:56:00,10.9,7.3,30.22,South,180,0.0,1.0,85,0.00,,,0.00,WeatherCatV1.10B1784,2013-01-23 07:56:00,
2013-01-23 02:01:00,10.7,7.1,30.22,South,180,0.0,1.0,85,0.00,,,0.00,WeatherCatV1.10B1784,2013-01-23 08:01:00,
2013-01-23 02:06:00,10.6,7.0,30.22,South,180,0.0,1.0,85,0.00,,,0.00,WeatherCatV1.10B1784,2013-01-23 08:06:00,
2013-01-23 02:11:00,10.4,7.1,30.22,South,180,0.0,1.0,86,0.00,,,0.00,WeatherCatV1.10B1784,2013-01-23 08:11:00,
2013-01-23 02:16:00,10.3,6.7,30.22,South,180,0.0,1.0,85,0.00,,,0.00,WeatherCatV1.10B1784,2013-01-23 08:16:00,
2013-01-23 02:21:00,10.2,6.9,30.23,South,178,0.0,2.0,86,0.00,,,0.00,WeatherCatV1.10B1784,2013-01-23 08:21:00,
2013-01-23 02:26:00,10.1,6.8,30.23,South,178,0.0,0.0,86,0.00,,,0.00,WeatherCatV1.10B1784,2013-01-23 08:26:00,
2013-01-23 02:31:00,9.9,6.6,30.23,South,178,0.0,2.0,86,0.00,,,0.00,WeatherCatV1.10B1784,2013-01-23 08:31:00,
2013-01-23 02:36:00,9.8,6.5,30.23,South,178,0.0,1.0,86,0.00,,,0.00,WeatherCatV1.10B1784,2013-01-23 08:36:00,
2013-01-23 02:41:00,9.7,6.4,30.23,South,178,0.0,0.0,86,0.00,,,0.00,WeatherCatV1.10B1784,2013-01-23 08:41:00,
2013-01-23 02:46:00,9.5,6.2,30.23,South,178,0.0,0.0,86,0.00,,,0.00,WeatherCatV1.10B1784,2013-01-23 08:46:00,
2013-01-23 02:51:00,9.3,6.0,30.23,South,178,0.0,0.0,86,0.00,,,0.00,WeatherCatV1.10B1784,2013-01-23 08:51:00,
2013-01-23 02:56:00,9.1,5.8,30.23,South,178,0.0,0.0,86,0.00,,,0.00,WeatherCatV1.10B1784,2013-01-23 08:56:00,
2013-01-23 03:01:00,8.9,5.6,30.23,South,178,0.0,0.0,86,0.00,,,0.00,WeatherCatV1.10B1784,2013-01-23 09:01:00,
2013-01-23 03:06:00,8.6,5.3,30.23,South,178,0.0,0.0,86,0.00,,,0.00,WeatherCatV1.10B1784,2013-01-23 09:06:00,
2013-01-23 03:11:00,8.4,5.1,30.23,South,178,0.0,0.0,86,0.00,,,0.00,WeatherCatV1.10B1784,2013-01-23 09:11:00,
2013-01-23 03:16:00,8.2,4.9,30.23,South,178,0.0,0.0,86,0.00,,,0.00,WeatherCatV1.10B1784,2013-01-23 09:16:00,
2013-01-23 03:21:00,7.9,4.6,30.23,South,178,0.0,0.0,86,0.00,,,0.00,WeatherCatV1.10B1784,2013-01-23 09:21:00,
2013-01-23 03:26:00,7.7,4.4,30.22,South,178,0.0,0.0,86,0.00,,,0.00,WeatherCatV1.10B1784,2013-01-23 09:26:00,
2013-01-23 03:31:00,7.5,4.2,30.22,South,178,0.0,0.0,86,0.00,,,0.00,WeatherCatV1.10B1784,2013-01-23 09:31:00,
2013-01-23 03:36:00,7.3,4.0,30.22,South,178,0.0,0.0,86,0.00,,,0.00,WeatherCatV1.10B1784,2013-01-23 09:36:00,
2013-01-23 03:41:00,7.2,4.2,30.22,South,178,0.0,0.0,87,0.00,,,0.00,WeatherCatV1.10B1784,2013-01-23 09:41:00,
2013-01-23 03:46:00,7.0,4.0,30.22,South,178,0.0,0.0,87,0.00,,,0.00,WeatherCatV1.10B1784,2013-01-23 09:46:00,
2013-01-23 03:51:00,6.8,3.8,30.22,South,178,0.0,0.0,87,0.00,,,0.00,WeatherCatV1.10B1784,2013-01-23 09:51:00,
2013-01-23 03:56:00,6.6,3.6,30.23,South,178,0.0,0.0,87,0.00,,,0.00,WeatherCatV1.10B1784,2013-01-23 09:56:00,
2013-01-23 04:01:00,6.5,3.5,30.23,South,178,0.0,0.0,87,0.00,,,0.00,WeatherCatV1.10B1784,2013-01-23 10:01:00,
2013-01-23 04:06:00,6.5,3.7,30.23,South,178,0.0,1.0,88,0.00,,,0.00,WeatherCatV1.10B1784,2013-01-23 10:06:00,
2013-01-23 04:11:00,6.5,3.7,30.23,South,178,0.0,0.0,88,0.00,,,0.00,WeatherCatV1.10B1784,2013-01-23 10:11:00,
2013-01-23 04:16:00,6.4,3.4,30.23,South,178,0.0,0.0,87,0.00,,,0.00,WeatherCatV1.10B1784,2013-01-23 10:16:00,
2013-01-23 04:21:00,6.3,3.3,30.22,South,178,0.0,0.0,87,0.00,,,0.00,WeatherCatV1.10B1784,2013-01-23 10:21:00,
2013-01-23 04:26:00,6.2,3.2,30.22,South,178,0.0,0.0,87,0.00,,,0.00,WeatherCatV1.10B1784,2013-01-23 10:26:00,
2013-01-23 04:31:00,6.0,3.0,30.22,South,178,0.0,0.0,87,0.00,,,0.00,WeatherCatV1.10B1784,2013-01-23 10:31:00,
2013-01-23 04:36:00,5.9,2.9,30.22,South,178,0.0,0.0,87,0.00,,,0.00,WeatherCatV1.10B1784,2013-01-23 10:36:00,
2013-01-23 04:41:00,5.9,2.9,30.22,South,178,0.0,0.0,87,0.00,,,0.00,WeatherCatV1.10B1784,2013-01-23 10:41:00,
2013-01-23 04:46:00,5.8,2.8,30.22,South,178,0.0,0.0,87,0.00,,,0.00,WeatherCatV1.10B1784,2013-01-23 10:46:00,
2013-01-23 04:51:00,5.8,3.0,30.23,South,178,0.0,0.0,88,0.00,,,0.00,WeatherCatV1.10B1784,2013-01-23 10:51:00,
2013-01-23 04:56:00,5.8,3.0,30.22,South,178,0.0,0.0,88,0.00,,,0.00,WeatherCatV1.10B1784,2013-01-23 10:56:00,
2013-01-23 05:01:00,6.0,3.2,30.23,South,178,0.0,1.0,88,0.00,,,0.00,WeatherCatV1.10B1784,2013-01-23 11:01:00,
2013-01-23 05:06:00,6.0,3.2,30.23,South,178,0.0,0.0,88,0.00,,,0.00,WeatherCatV1.10B1784,2013-01-23 11:06:00,
2013-01-23 05:11:00,6.1,3.3,30.23,South,178,0.0,0.0,88,0.00,,,0.00,WeatherCatV1.10B1784,2013-01-23 11:11:00,
2013-01-23 05:16:00,6.2,3.4,30.23,South,178,0.0,0.0,88,0.00,,,0.00,WeatherCatV1.10B1784,2013-01-23 11:16:00,
2013-01-23 05:21:00,6.3,3.5,30.23,South,178,0.0,0.0,88,0.00,,,0.00,WeatherCatV1.10B1784,2013-01-23 11:21:00,
2013-01-23 05:26:00,6.3,3.5,30.24,South,178,0.0,0.0,88,0.00,,,0.00,WeatherCatV1.10B1784,2013-01-23 11:26:00,
2013-01-23 05:31:00,6.2,3.2,30.24,South,178,0.0,0.0,87,0.00,,,0.00,WeatherCatV1.10B1784,2013-01-23 11:31:00,
2013-01-23 05:36:00,6.2,3.4,30.24,South,178,0.0,0.0,88,0.00,,,0.00,WeatherCatV1.10B1784,2013-01-23 11:36:00,
2013-01-23 05:41:00,6.2,3.4,30.24,South,178,0.0,0.0,88,0.00,,,0.00,WeatherCatV1.10B1784,2013-01-23 11:41:00,
2013-01-23 05:46:00,6.3,3.5,30.24,South,178,0.0,0.0,88,0.00,,,0.00,WeatherCatV1.10B1784,2013-01-23 11:46:00,
2013-01-23 05:51:00,6.5,3.7,30.24,South,178,0.0,1.0,88,0.00,,,0.00,WeatherCatV1.10B1784,2013-01-23 11:51:00,
2013-01-23 05:56:00,6.7,3.9,30.24,South,178,0.0,0.0,88,0.00,,,0.00,WeatherCatV1.10B1784,2013-01-23 11:56:00,
2013-01-23 06:01:00,6.7,3.9,30.24,South,178,0.0,0.0,88,0.00,,,0.00,WeatherCatV1.10B1784,2013-01-23 12:01:00,
2013-01-23 06:06:00,6.8,4.0,30.24,South,178,1.0,1.0,88,0.00,,,0.00,WeatherCatV1.10B1784,2013-01-23 12:06:00,
2013-01-23 06:11:00,7.1,4.3,30.24,South,178,0.0,1.0,88,0.00,,,0.00,WeatherCatV1.10B1784,2013-01-23 12:11:00,
2013-01-23 06:16:00,7.3,4.5,30.25,South,178,0.0,1.0,88,0.00,,,0.00,WeatherCatV1.10B1784,2013-01-23 12:16:00,
2013-01-23 06:21:00,7.3,4.5,30.25,South,178,0.0,1.0,88,0.00,,,0.00,WeatherCatV1.10B1784,2013-01-23 12:21:00,
2013-01-23 06:26:00,7.4,4.6,30.25,South,178,0.0,1.0,88,0.00,,,0.00,WeatherCatV1.10B1784,2013-01-23 12:26:00,
2013-01-23 06:31:00,7.6,4.8,30.25,South,178,0.0,1.0,88,0.00,,,0.00,WeatherCatV1.10B1784,2013-01-23 12:31:00,
2013-01-23 06:36:00,7.7,4.9,30.25,South,178,0.0,1.0,88,0.00,,,0.00,WeatherCatV1.10B1784,2013-01-23 12:36:00,
2013-01-23 06:41:00,7.8,5.2,30.25,South,178,1.0,2.0,89,0.00,,,0.00,WeatherCatV1.10B1784,2013-01-23 12:41:00,
2013-01-23 06:46:00,8.2,5.6,30.26,South,178,1.0,2.0,89,0.00,,,0.00,WeatherCatV1.10B1784,2013-01-23 12:46:00,
2013-01-23 06:51:00,8.6,6.0,30.26,West,266,2.0,2.0,89,0.00,,,0.00,WeatherCatV1.10B1784,2013-01-23 12:51:00,
2013-01-23 06:56:00,9.0,6.4,30.26,West,266,2.0,3.0,89,0.00,,,0.00,WeatherCatV1.10B1784,2013-01-23 12:56:00,
2013-01-23 07:01:00,9.2,6.6,30.26,West,266,1.0,2.0,89,0.00,,,0.00,WeatherCatV1.10B1784,2013-01-23 13:01:00,
2013-01-23 07:06:00,9.4,6.6,30.27,West,266,0.0,2.0,88,0.00,,,0.00,WeatherCatV1.10B1784,2013-01-23 13:06:00,
2013-01-23 07:11:00,9.4,6.6,30.27,West,266,0.0,1.0,88,0.00,,,0.00,WeatherCatV1.10B1784,2013-01-23 13:11:00,
2013-01-23 07:16:00,9.3,6.5,30.28,West,266,0.0,2.0,88,0.00,,,0.00,WeatherCatV1.10B1784,2013-01-23 13:16:00,
2013-01-23 07:21:00,9.3,6.2,30.28,West,272,0.0,4.0,87,0.00,,,0.00,WeatherCatV1.10B1784,2013-01-23 13:21:00,
2013-01-23 07:26:00,9.2,6.4,30.28,West,272,1.0,2.0,88,0.00,,,0.00,WeatherCatV1.10B1784,2013-01-23 13:26:00,
2013-01-23 07:31:00,9.2,6.1,30.28,West,272,0.0,1.0,87,0.00,,,0.00,WeatherCatV1.10B1784,2013-01-23 13:31:00,
2013-01-23 07:36:00,9.2,6.1,30.28,West,272,0.0,1.0,87,0.00,,,0.00,WeatherCatV1.10B1784,2013-01-23 13:36:00,
2013-01-23 07:41:00,9.1,6.0,30.27,West,272,0.0,2.0,87,0.00,,,0.00,WeatherCatV1.10B1784,2013-01-23 13:41:00,
2013-01-23 07:46:00,9.2,6.4,30.27,West,272,1.0,1.0,88,0.00,,,0.00,WeatherCatV1.10B1784,2013-01-23 13:46:00,
2013-01-23 07:51:00,9.1,6.3,30.28,West,272,0.0,1.0,88,0.00,,,0.00,WeatherCatV1.10B1784,2013-01-23 13:51:00,
2013-01-23 07:56:00,9.1,6.0,30.28,West,272,2.0,2.0,87,0.00,,,0.00,WeatherCatV1.10B1784,2013-01-23 13:56:00,
2013-01-23 08:01:00,9.1,6.3,30.28,West,272,0.0,1.0,88,0.00,,,0.00,WeatherCatV1.10B1784,2013-01-23 14:01:00,
2013-01-23 08:06:00,9.1,6.3,30.28,West,272,1.0,2.0,88,0.00,,,0.00,WeatherCatV1.10B1784,2013-01-23 14:06:00,
2013-01-23 08:11:00,9.2,6.1,30.28,West,272,0.0,2.0,87,0.00,,,0.00,WeatherCatV1.10B1784,2013-01-23 14:11:00,
2013-01-23 08:16:00,9.2,6.4,30.29,West,272,0.0,1.0,88,0.00,,,0.00,WeatherCatV1.10B1784,2013-01-23 14:16:00,
2013-01-23 08:21:00,9.3,6.5,30.29,West,272,1.0,1.0,88,0.00,,,0.00,WeatherCatV1.10B1784,2013-01-23 14:21:00,
2013-01-23 08:26:00,9.6,6.8,30.29,West,280,1.0,2.0,88,0.00,,,0.00,WeatherCatV1.10B1784,2013-01-23 14:26:00,
2013-01-23 08:31:00,10.0,7.2,30.30,West,280,2.0,2.0,88,0.00,,,0.00,WeatherCatV1.10B1784,2013-01-23 14:31:00,
2013-01-23 08:36:00,10.3,7.5,30.30,West,280,3.0,4.0,88,0.00,,,0.00,WeatherCatV1.10B1784,2013-01-23 14:36:00,
2013-01-23 08:41:00,10.7,7.9,30.30,West,280,2.0,5.0,88,0.00,,,0.00,WeatherCatV1.10B1784,2013-01-23 14:41:00,
2013-01-23 08:46:00,11.1,8.0,30.30,NW,326,3.0,7.0,87,0.00,,,0.00,WeatherCatV1.10B1784,2013-01-23 14:46:00,
2013-01-23 08:51:00,11.4,8.3,30.30,North,352,2.0,4.0,87,0.00,,,0.00,WeatherCatV1.10B1784,2013-01-23 14:51:00,
2013-01-23 08:56:00,11.8,8.7,30.30,West,280,2.0,4.0,87,0.00,,,0.00,WeatherCatV1.10B1784,2013-01-23 14:56:00,
2013-01-23 09:01:00,12.0,8.6,30.31,WNW,298,2.0,4.0,86,0.00,,,0.00,WeatherCatV1.10B1784,2013-01-23 15:01:00,
2013-01-23 09:06:00,12.3,8.9,30.31,WNW,286,2.0,4.0,86,0.00,,,0.00,WeatherCatV1.10B1784,2013-01-23 15:06:00,
2013-01-23 09:11:00,12.5,9.1,30.31,WNW,293,5.0,5.0,86,0.00,,,0.00,WeatherCatV1.10B1784,2013-01-23 15:11:00,
2013-01-23 09:16:00,12.7,9.1,30.31,NW,324,3.0,5.0,85,0.00,,,0.00,WeatherCatV1.10B1784,2013-01-23 15:16:00,
2013-01-23 09:21:00,12.9,9.3,30.31,West,275,2.0,6.0,85,0.00,,,0.00,WeatherCatV1.10B1784,2013-01-23 15:21:00,
2013-01-23 09:26:00,13.1,9.5,30.32,North,10,2.0,7.0,85,0.00,,,0.00,WeatherCatV1.10B1784,2013-01-23 15:26:00,
2013-01-23 09:31:00,13.2,9.3,30.32,West,268,2.0,6.0,84,0.00,,,0.00,WeatherCatV1.10B1784,2013-01-23 15:31:00,
2013-01-23 09:36:00,13.4,9.5,30.33,NW,326,5.0,7.0,84,0.00,,,0.00,WeatherCatV1.10B1784,2013-01-23 15:36:00,
2013-01-23 09:41:00,13.6,9.7,30.33,NW,318,3.0,3.0,84,0.00,,,0.00,WeatherCatV1.10B1784,2013-01-23 15:41:00,
2013-01-23 09:46:00,14.0,9.8,30.34,West,270,5.0,7.0,83,0.00,,,0.00,WeatherCatV1.10B1784,2013-01-23 15:46:00,
2013-01-23 09:51:00,14.2,10.0,30.34,WNW,285,6.0,9.0,83,0.00,,,0.00,WeatherCatV1.10B1784,2013-01-23 15:51:00,
2013-01-23 09:56:00,14.4,10.2,30.34,WNW,286,2.0,8.0,83,0.00,,,0.00,WeatherCatV1.10B1784,2013-01-23 15:56:00,
2013-01-23 10:01:00,14.5,10.0,30.35,WNW,293,5.0,7.0,82,0.00,,,0.00,WeatherCatV1.10B1784,2013-01-23 16:01:00,
2013-01-23 10:06:00,14.5,10.0,30.35,WNW,299,2.0,8.0,82,0.00,,,0.00,WeatherCatV1.10B1784,2013-01-23 16:06:00,
2013-01-23 10:11:00,14.8,10.3,30.35,NW,322,3.0,4.0,82,0.00,,,0.00,WeatherCatV1.10B1784,2013-01-23 16:11:00,
2013-01-23 10:16:00,15.0,10.2,30.35,NW,311,6.0,9.0,81,0.00,,,0.00,WeatherCatV1.10B1784,2013-01-23 16:16:00,
2013-01-23 10:21:00,15.0,10.2,30.36,West,272,4.0,6.0,81,0.00,,,0.00,WeatherCatV1.10B1784,2013-01-23 16:21:00,
2013-01-23 10:26:00,15.3,10.8,30.36,WNW,301,2.0,6.0,82,0.00,,,0.00,WeatherCatV1.10B1784,2013-01-23 16:26:00,
2013-01-23 10:31:00,15.5,10.7,30.36,NW,314,4.0,7.0,81,0.00,,,0.00,WeatherCatV1.10B1784,2013-01-23 16:31:00,
2013-01-23 10:36:00,15.9,10.8,30.36,NW,307,4.0,9.0,80,0.00,,,0.00,WeatherCatV1.10B1784,2013-01-23 16:36:00,
2013-01-23 10:41:00,16.1,10.8,30.37,NNW,339,3.0,7.0,79,0.00,,,0.00,WeatherCatV1.10B1784,2013-01-23 16:41:00,
2013-01-23 10:46:00,15.9,10.3,30.37,NNW,344,6.0,9.0,78,0.00,,,0.00,WeatherCatV1.10B1784,2013-01-23 16:46:00,
2013-01-23 10:51:00,16.1,10.8,30.37,ENE,59,2.0,6.0,79,0.00,,,0.00,WeatherCatV1.10B1784,2013-01-23 16:51:00,
2013-01-23 10:56:00,16.3,10.4,30.38,NW,325,4.0,10.0,77,0.00,,,0.00,WeatherCatV1.10B1784,2013-01-23 16:56:00,
2013-01-23 11:01:00,16.3,10.1,30.37,NW,309,8.0,8.0,76,0.00,,,0.00,WeatherCatV1.10B1784,2013-01-23 17:01:00,
2013-01-23 11:07:00,16.5,10.6,30.38,NE,34,6.0,9.0,77,0.00,,,0.00,WeatherCatV1.10B1784,2013-01-23 17:07:00,
2013-01-23 11:12:00,16.6,10.7,30.38,WNW,299,3.0,5.0,77,0.00,,,0.00,WeatherCatV1.10B1784,2013-01-23 17:12:00,
2013-01-23 11:17:00,17.0,10.8,30.38,West,272,3.0,9.0,76,0.00,,,0.00,WeatherCatV1.10B1784,2013-01-23 17:17:00,
2013-01-23 11:22:00,17.1,10.3,30.39,WNW,295,9.0,11.0,74,0.00,,,0.00,WeatherCatV1.10B1784,2013-01-23 17:22:00,
2013-01-23 11:27:00,17.0,9.9,30.39,NNE,23,6.0,10.0,73,0.00,,,0.00,WeatherCatV1.10B1784,2013-01-23 17:27:00,
2013-01-23 11:32:00,17.0,9.9,30.40,NW,315,8.0,8.0,73,0.00,,,0.00,WeatherCatV1.10B1784,2013-01-23 17:32:00,
2013-01-23 11:37:00,17.3,10.2,30.40,WNW,300,0.0,6.0,73,0.00,,,0.00,WeatherCatV1.10B1784,2013-01-23 17:37:00,
2013-01-23 11:42:00,17.2,9.8,30.40,WNW,293,4.0,8.0,72,0.00,,,0.00,WeatherCatV1.10B1784,2013-01-23 17:42:00,
2013-01-23 11:47:00,17.0,9.6,30.40,NW,320,4.0,8.0,72,0.00,,,0.00,WeatherCatV1.10B1784,2013-01-23 17:47:00,
2013-01-23 11:52:00,17.0,9.6,30.40,NW,322,2.0,8.0,72,0.00,,,0.00,WeatherCatV1.10B1784,2013-01-23 17:52:00,
2013-01-23 11:57:00,17.0,9.9,30.40,NNW,334,4.0,8.0,73,0.00,,,0.00,WeatherCatV1.10B1784,2013-01-23 17:57:00,
2013-01-23 12:02:00,16.8,9.4,30.41,WNW,297,7.0,9.0,72,0.00,,,0.00,WeatherCatV1.10B1784,2013-01-23 18:02:00,
2013-01-23 12:07:00,16.6,8.9,30.41,NW,317,8.0,9.0,71,0.00,,,0.00,WeatherCatV1.10B1784,2013-01-23 18:07:00,
2013-01-23 12:12:00,16.2,8.2,30.40,NW,326,4.0,9.0,70,0.00,,,0.00,WeatherCatV1.10B1784,2013-01-23 18:12:00,
2013-01-23 12:17:00,16.2,8.5,30.40,NNE,31,5.0,10.0,71,0.00,,,0.00,WeatherCatV1.10B1784,2013-01-23 18:17:00,
2013-01-23 12:22:00,16.5,9.1,30.41,NNW,329,4.0,6.0,72,0.00,,,0.00,WeatherCatV1.10B1784,2013-01-23 18:22:00,
2013-01-23 12:27:00,16.6,8.9,30.41,WNW,291,0.0,8.0,71,0.00,,,0.00,WeatherCatV1.10B1784,2013-01-23 18:27:00,
2013-01-23 12:32:00,16.5,8.5,30.41,NW,307,4.0,10.0,70,0.00,,,0.00,WeatherCatV1.10B1784,2013-01-23 18:32:00,
2013-01-23 12:37:00,16.2,8.2,30.41,NW,311,0.0,7.0,70,0.00,,,0.00,WeatherCatV1.10B1784,2013-01-23 18:37:00,
2013-01-23 12:42:00,16.1,8.1,30.42,NNW,338,6.0,10.0,70,0.00,,,0.00,WeatherCatV1.10B1784,2013-01-23 18:42:00,
2013-01-23 12:47:00,16.0,8.3,30.42,NNW,333,3.0,6.0,71,0.00,,,0.00,WeatherCatV1.10B1784,2013-01-23 18:47:00,
2013-01-23 12:52:00,16.0,8.0,30.42,NNW,348,4.0,9.0,70,0.00,,,0.00,WeatherCatV1.10B1784,2013-01-23 18:52:00,
2013-01-23 12:57:00,16.0,8.0,30.42,NNW,334,5.0,8.0,70,0.00,,,0.00,WeatherCatV1.10B1784,2013-01-23 18:57:00,
2013-01-23 13:02:00,15.7,7.4,30.42,NW,307,6.0,9.0,69,0.00,,,0.00,WeatherCatV1.10B1784,2013-01-23 19:02:00,
2013-01-23 13:07:00,15.3,7.3,30.42,NW,324,6.0,9.0,70,0.00,,,0.00,WeatherCatV1.10B1784,2013-01-23 19:07:00,
2013-01-23 13:12:00,15.3,7.3,30.42,NNW,336,1.0,10.0,70,0.00,,,0.00,WeatherCatV1.10B1784,2013-01-23 19:12:00,
2013-01-23 13:17:00,15.4,7.1,30.41,WNW,297,6.0,11.0,69,0.00,,,0.00,WeatherCatV1.10B1784,2013-01-23 19:17:00,
2013-01-23 13:22:00,15.4,7.1,30.41,NW,311,4.0,8.0,69,0.00,,,0.00,WeatherCatV1.10B1784,2013-01-23 19:22:00,
2013-01-23 13:27:00,15.4,7.1,30.41,NW,317,6.0,8.0,69,0.00,,,0.00,WeatherCatV1.10B1784,2013-01-23 19:27:00,
2013-01-23 13:32:00,15.6,6.9,30.41,NW,306,4.0,7.0,68,0.00,,,0.00,WeatherCatV1.10B1784,2013-01-23 19:32:00,
2013-01-23 13:37:00,16.1,7.4,30.41,NW,307,6.0,6.0,68,0.00,,,0.00,WeatherCatV1.10B1784,2013-01-23 19:37:00,
2013-01-23 13:42:00,16.2,7.2,30.41,North,356,6.0,10.0,67,0.00,,,0.00,WeatherCatV1.10B1784,2013-01-23 19:42:00,
2013-01-23 13:47:00,16.1,6.4,30.41,North,10,4.0,9.0,65,0.00,,,0.00,WeatherCatV1.10B1784,2013-01-23 19:47:00,
2013-01-23 13:52:00,16.0,6.7,30.42,NW,324,2.0,8.0,66,0.00,,,0.00,WeatherCatV1.10B1784,2013-01-23 19:52:00,
2013-01-23 13:57:00,16.1,7.1,30.42,North,10,6.0,9.0,67,0.00,,,0.00,WeatherCatV1.10B1784,2013-01-23 19:57:00,
2013-01-23 14:02:00,16.0,7.3,30.42,NW,320,7.0,8.0,68,0.00,,,0.00,WeatherCatV1.10B1784,2013-01-23 20:02:00,
2013-01-23 14:07:00,15.7,6.4,30.42,WNW,301,5.0,11.0,66,0.00,,,0.00,WeatherCatV1.10B1784,2013-01-23 20:07:00,
2013-01-23 14:12:00,15.6,6.3,30.42,North,0,5.0,9.0,66,0.00,,,0.00,WeatherCatV1.10B1784,2013-01-23 20:12:00,
2013-01-23 14:17:00,15.4,5.8,30.43,NNW,328,8.0,11.0,65,0.00,,,0.00,WeatherCatV1.10B1784,2013-01-23 20:17:00,
2013-01-23 14:22:00,15.2,5.6,30.43,WNW,302,5.0,7.0,65,0.00,,,0.00,WeatherCatV1.10B1784,2013-01-23 20:22:00,
2013-01-23 14:27:00,15.2,5.2,30.43,NW,313,7.0,11.0,64,0.00,,,0.00,WeatherCatV1.10B1784,2013-01-23 20:27:00,
2013-01-23 14:32:00,15.4,5.8,30.43,NE,43,6.0,7.0,65,0.00,,,0.00,WeatherCatV1.10B1784,2013-01-23 20:32:00,
2013-01-23 14:37:00,15.6,6.0,30.43,NW,320,4.0,11.0,65,0.00,,,0.00,WeatherCatV1.10B1784,2013-01-23 20:37:00,
2013-01-23 14:42:00,15.4,5.8,30.43,NW,325,4.0,11.0,65,0.00,,,0.00,WeatherCatV1.10B1784,2013-01-23 20:42:00,
2013-01-23 14:47:00,15.0,5.1,30.43,NW,311,5.0,10.0,64,0.00,,,0.00,WeatherCatV1.10B1784,2013-01-23 20:47:00,
2013-01-23 14:52:00,14.6,4.7,30.43,NW,323,10.0,11.0,64,0.00,,,0.00,WeatherCatV1.10B1784,2013-01-23 20:52:00,
2013-01-23 14:57:00,14.2,3.9,30.43,NW,325,4.0,11.0,63,0.00,,,0.00,WeatherCatV1.10B1784,2013-01-23 20:57:00,
2013-01-23 15:02:00,14.3,4.4,30.43,NW,322,7.0,13.0,64,0.00,,,0.00,WeatherCatV1.10B1784,2013-01-23 21:02:00,
2013-01-23 15:07:00,14.2,4.3,30.43,NNW,332,3.0,10.0,64,0.00,,,0.00,WeatherCatV1.10B1784,2013-01-23 21:07:00,
2013-01-23 15:12:00,13.9,3.7,30.44,North,353,5.0,8.0,63,0.00,,,0.00,WeatherCatV1.10B1784,2013-01-23 21:12:00,
2013-01-23 15:17:00,14.0,4.1,30.45,NNW,327,4.0,4.0,64,0.00,,,0.00,WeatherCatV1.10B1784,2013-01-23 21:17:00,
2013-01-23 15:22:00,14.0,3.8,30.45,NW,324,4.0,10.0,63,0.00,,,0.00,WeatherCatV1.10B1784,2013-01-23 21:22:00,
2013-01-23 15:27:00,13.7,3.5,30.45,WNW,299,5.0,12.0,63,0.00,,,0.00,WeatherCatV1.10B1784,2013-01-23 21:27:00,
2013-01-23 15:32:00,13.6,3.4,30.45,NNE,21,3.0,12.0,63,0.00,,,0.00,WeatherCatV1.10B1784,2013-01-23 21:32:00,
2013-01-23 15:37:00,13.6,3.4,30.45,NW,306,4.0,6.0,63,0.00,,,0.00,WeatherCatV1.10B1784,2013-01-23 21:37:00,
2013-01-23 15:42:00,13.4,2.8,30.46,NNW,341,4.0,11.0,62,0.00,,,0.00,WeatherCatV1.10B1784,2013-01-23 21:42:00,
2013-01-23 15:47:00,13.2,3.0,30.47,NW,320,3.0,7.0,63,0.00,,,0.00,WeatherCatV1.10B1784,2013-01-23 21:47:00,
2013-01-23 15:52:00,12.8,2.3,30.47,North,351,6.0,7.0,62,0.00,,,0.00,WeatherCatV1.10B1784,2013-01-23 21:52:00,
2013-01-23 15:57:00,12.6,2.4,30.48,WNW,291,3.0,8.0,63,0.00,,,0.00,WeatherCatV1.10B1784,2013-01-23 21:57:00,
2013-01-23 16:02:00,12.5,3.0,30.49,NW,311,5.0,6.0,65,0.00,,,0.00,WeatherCatV1.10B1784,2013-01-23 22:02:00,
2013-01-23 16:07:00,12.4,2.9,30.50,NNW,328,5.0,9.0,65,0.00,,,0.00,WeatherCatV1.10B1784,2013-01-23 22:07:00,
2013-01-23 16:12:00,12.2,2.7,30.50,NNW,347,5.0,9.0,65,0.00,,,0.00,WeatherCatV1.10B1784,2013-01-23 22:12:00,
2013-01-23 16:17:00,12.0,2.9,30.50,WNW,286,2.0,8.0,66,0.00,,,0.00,WeatherCatV1.10B1784,2013-01-23 22:17:00,
2013-01-23 16:22:00,11.9,3.1,30.50,NW,309,4.0,7.0,67,0.00,,,0.00,WeatherCatV1.10B1784,2013-01-23 22:22:00,
2013-01-23 16:27:00,11.4,2.6,30.50,NW,314,4.0,7.0,67,0.00,,,0.00,WeatherCatV1.10B1784,2013-01-23 22:27:00,
2013-01-23 16:32:00,11.0,2.2,30.51,NNW,341,3.0,7.0,67,0.00,,,0.00,WeatherCatV1.10B1784,2013-01-23 22:32:00,
2013-01-23 16:37:00,10.9,2.8,30.50,NW,307,2.0,4.0,69,0.00,,,0.00,WeatherCatV1.10B1784,2013-01-23 22:37:00,
2013-01-23 16:42:00,10.7,2.6,30.51,NW,316,0.0,5.0,69,0.00,,,0.00,WeatherCatV1.10B1784,2013-01-23 22:42:00,
2013-01-23 16:47:00,10.5,2.7,30.52,NW,326,7.0,7.0,70,0.00,,,0.00,WeatherCatV1.10B1784,2013-01-23 22:47:00,
2013-01-23 16:52:00,10.2,2.4,30.52,NW,320,2.0,4.0,70,0.00,,,0.00,WeatherCatV1.10B1784,2013-01-23 22:52:00,
2013-01-23 16:57:00,10.0,2.5,30.52,NW,307,4.0,8.0,71,0.00,,,0.00,WeatherCatV1.10B1784,2013-01-23 22:57:00,
2013-01-23 17:02:00,9.7,2.2,30.52,NNW,332,4.0,8.0,71,0.00,,,0.00,WeatherCatV1.10B1784,2013-01-23 23:02:00,
2013-01-23 17:07:00,9.4,1.9,30.52,NW,307,2.0,7.0,71,0.00,,,0.00,WeatherCatV1.10B1784,2013-01-23 23:07:00,
2013-01-23 17:12:00,9.1,1.3,30.52,North,0,2.0,6.0,70,0.00,,,0.00,WeatherCatV1.10B1784,2013-01-23 23:12:00,
2013-01-23 17:17:00,8.9,1.1,30.52,NNE,19,5.0,8.0,70,0.00,,,0.00,WeatherCatV1.10B1784,2013-01-23 23:17:00,
2013-01-23 17:22:00,8.7,1.0,30.53,WNW,289,2.0,6.0,70,0.00,,,0.00,WeatherCatV1.10B1784,2013-01-23 23:22:00,
2013-01-23 17:27:00,8.5,1.1,30.53,WNW,299,2.0,3.0,71,0.00,,,0.00,WeatherCatV1.10B1784,2013-01-23 23:27:00,
2013-01-23 17:32:00,8.4,1.3,30.53,NNW,332,2.0,7.0,72,0.00,,,0.00,WeatherCatV1.10B1784,2013-01-23 23:32:00,
2013-01-23 17:37:00,8.2,1.1,30.54,NNW,332,0.0,8.0,72,0.00,,,0.00,WeatherCatV1.10B1784,2013-01-23 23:37:00,
2013-01-23 17:42:00,8.0,0.9,30.53,WNW,303,3.0,6.0,72,0.00,,,0.00,WeatherCatV1.10B1784,2013-01-23 23:42:00,
2013-01-23 17:47:00,7.8,0.7,30.54,NNW,345,0.0,7.0,72,0.00,,,0.00,WeatherCatV1.10B1784,2013-01-23 23:47:00,
2013-01-23 17:52:00,7.6,0.2,30.54,NNW,347,3.0,7.0,71,0.00,,,0.00,WeatherCatV1.10B1784,2013-01-23 23:52:00,
2013-01-23 17:57:00,7.3,-0.4,30.54,NNE,22,3.0,8.0,70,0.00,,,0.00,WeatherCatV1.10B1784,2013-01-23 23:57:00,
2013-01-23 18:02:00,7.0,-1.0,30.54,NNW,335,3.0,7.0,69,0.00,,,0.00,WeatherCatV1.10B1784,2013-01-24 00:02:00,
2013-01-23 18:07:00,6.8,-0.9,30.55,NW,322,4.0,7.0,70,0.00,,,0.00,WeatherCatV1.10B1784,2013-01-24 00:07:00,
2013-01-23 18:12:00,6.7,-1.0,30.55,WNW,299,5.0,8.0,70,0.00,,,0.00,WeatherCatV1.10B1784,2013-01-24 00:12:00,
2013-01-23 18:17:00,6.5,-0.9,30.55,NW,320,5.0,8.0,71,0.00,,,0.00,WeatherCatV1.10B1784,2013-01-24 00:17:00,
2013-01-23 18:22:00,6.4,-1.0,30.55,NW,318,4.0,8.0,71,0.00,,,0.00,WeatherCatV1.10B1784,2013-01-24 00:22:00,
2013-01-23 18:27:00,6.3,-0.8,30.56,North,349,0.0,4.0,72,0.00,,,0.00,WeatherCatV1.10B1784,2013-01-24 00:27:00,
2013-01-23 18:32:00,6.2,-0.9,30.56,North,353,1.0,6.0,72,0.00,,,0.00,WeatherCatV1.10B1784,2013-01-24 00:32:00,
2013-01-23 18:37:00,6.1,-0.7,30.56,North,350,2.0,8.0,73,0.00,,,0.00,WeatherCatV1.10B1784,2013-01-24 00:37:00,
2013-01-23 18:42:00,6.0,-0.8,30.56,North,10,2.0,5.0,73,0.00,,,0.00,WeatherCatV1.10B1784,2013-01-24 00:42:00,
2013-01-23 18:47:00,5.8,-1.0,30.57,NW,320,1.0,3.0,73,0.00,,,0.00,WeatherCatV1.10B1784,2013-01-24 00:47:00,
2013-01-23 18:52:00,5.7,-1.1,30.57,NNW,345,3.0,4.0,73,0.00,,,0.00,WeatherCatV1.10B1784,2013-01-24 00:52:00,
2013-01-23 18:57:00,5.5,-1.5,30.57,NW,323,4.0,8.0,72,0.00,,,0.00,WeatherCatV1.10B1784,2013-01-24 00:57:00,
2013-01-23 19:02:00,5.4,-1.6,30.57,NNW,327,5.0,5.0,72,0.00,,,0.00,WeatherCatV1.10B1784,2013-01-24 01:02:00,
2013-01-23 19:07:00,5.2,-1.8,30.57,NNE,26,0.0,5.0,72,0.00,,,0.00,WeatherCatV1.10B1784,2013-01-24 01:07:00,
2013-01-23 19:12:00,5.1,-1.6,30.56,NW,307,2.0,6.0,73,0.00,,,0.00,WeatherCatV1.10B1784,2013-01-24 01:12:00,
2013-01-23 19:17:00,5.1,-1.3,30.56,NE,47,1.0,7.0,74,0.00,,,0.00,WeatherCatV1.10B1784,2013-01-24 01:17:00,
2013-01-23 19:22:00,5.0,-1.4,30.57,NW,309,1.0,7.0,74,0.00,,,0.00,WeatherCatV1.10B1784,2013-01-24 01:22:00,
2013-01-23 19:27:00,5.0,-1.4,30.57,NNW,343,1.0,2.0,74,0.00,,,0.00,WeatherCatV1.10B1784,2013-01-24 01:27:00,
2013-01-23 19:32:00,5.0,-1.4,30.58,NNE,27,6.0,6.0,74,0.00,,,0.00,WeatherCatV1.10B1784,2013-01-24 01:32:00,
2013-01-23 19:37:00,4.8,-1.6,30.58,NW,324,1.0,5.0,74,0.00,,,0.00,WeatherCatV1.10B1784,2013-01-24 01:37:00,
2013-01-23 19:42:00,4.7,-1.5,30.59,North,355,0.0,6.0,75,0.00,,,0.00,WeatherCatV1.10B1784,2013-01-24 01:42:00,
2013-01-23 19:47:00,4.4,-2.0,30.59,North,354,4.0,7.0,74,0.00,,,0.00,WeatherCatV1.10B1784,2013-01-24 01:47:00,
2013-01-23 19:52:00,4.1,-2.6,30.60,NNW,341,0.0,4.0,73,0.00,,,0.00,WeatherCatV1.10B1784,2013-01-24 01:52:00,
2013-01-23 19:57:00,3.8,-2.6,30.60,NE,47,0.0,4.0,74,0.00,,,0.00,WeatherCatV1.10B1784,2013-01-24 01:57:00,
2013-01-23 20:02:00,3.7,-2.7,30.60,NNW,343,0.0,2.0,74,0.00,,,0.00,WeatherCatV1.10B1784,2013-01-24 02:02:00,
2013-01-23 20:07:00,3.5,-2.9,30.60,ENE,62,1.0,3.0,74,0.00,,,0.00,WeatherCatV1.10B1784,2013-01-24 02:07:00,
2013-01-23 20:12:00,3.3,-3.4,30.60,North,349,1.0,8.0,73,0.00,,,0.00,WeatherCatV1.10B1784,2013-01-24 02:12:00,
2013-01-23 20:17:00,3.1,-3.3,30.60,NE,50,1.0,4.0,74,0.00,,,0.00,WeatherCatV1.10B1784,2013-01-24 02:17:00,
2013-01-23 20:22:00,2.9,-3.8,30.60,NNE,29,1.0,2.0,73,0.00,,,0.00,WeatherCatV1.10B1784,2013-01-24 02:22:00,
2013-01-23 20:27:00,2.7,-4.0,30.60,NNW,341,2.0,4.0,73,0.00,,,0.00,WeatherCatV1.10B1784,2013-01-24 02:27:00,
2013-01-23 20:32:00,2.5,-4.1,30.60,North,10,3.0,5.0,73,0.00,,,0.00,WeatherCatV1.10B1784,2013-01-24 02:32:00,
2013-01-23 20:37:00,2.3,-4.3,30.60,NNW,336,1.0,4.0,73,0.00,,,0.00,WeatherCatV1.10B1784,2013-01-24 02:37:00,
2013-01-23 20:42:00,2.2,-4.4,30.60,NNW,329,1.0,6.0,73,0.00,,,0.00,WeatherCatV1.10B1784,2013-01-24 02:42:00,
2013-01-23 20:47:00,2.0,-4.6,30.60,WNW,296,3.0,3.0,73,0.00,,,0.00,WeatherCatV1.10B1784,2013-01-24 02:47:00,
2013-01-23 20:52:00,1.9,-4.7,30.61,WNW,303,3.0,5.0,73,0.00,,,0.00,WeatherCatV1.10B1784,2013-01-24 02:52:00,
2013-01-23 20:57:00,1.8,-4.8,30.60,NNW,336,1.0,5.0,73,0.00,,,0.00,WeatherCatV1.10B1784,2013-01-24 02:57:00,
2013-01-23 21:02:00,1.8,-4.5,30.60,NNW,338,0.0,3.0,74,0.00,,,0.00,WeatherCatV1.10B1784,2013-01-24 03:02:00,
2013-01-23 21:07:00,1.7,-4.6,30.60,ENE,64,2.0,5.0,74,0.00,,,0.00,WeatherCatV1.10B1784,2013-01-24 03:07:00,
2013-01-23 21:12:00,1.6,-4.7,30.60,NE,51,0.0,3.0,74,0.00,,,0.00,WeatherCatV1.10B1784,2013-01-24 03:12:00,
2013-01-23 21:17:00,1.4,-5.2,30.61,NE,53,2.0,3.0,73,0.00,,,0.00,WeatherCatV1.10B1784,2013-01-24 03:17:00,
2013-01-23 21:22:00,1.3,-5.6,30.61,NNW,334,3.0,5.0,72,0.00,,,0.00,WeatherCatV1.10B1784,2013-01-24 03:22:00,
2013-01-23 21:27:00,1.1,-6.1,30.62,NNW,347,2.0,7.0,71,0.00,,,0.00,WeatherCatV1.10B1784,2013-01-24 03:27:00,
2013-01-23 21:32:00,1.0,-6.5,30.61,NNE,22,0.0,6.0,70,0.00,,,0.00,WeatherCatV1.10B1784,2013-01-24 03:32:00,
2013-01-23 21:37:00,0.8,-6.7,30.62,NE,49,2.0,6.0,70,0.00,,,0.00,WeatherCatV1.10B1784,2013-01-24 03:37:00,
2013-01-23 21:42:00,0.7,-7.0,30.62,NNW,330,4.0,7.0,69,0.00,,,0.00,WeatherCatV1.10B1784,2013-01-24 03:42:00,
2013-01-23 21:47:00,0.5,-6.9,30.61,North,10,0.0,3.0,70,0.00,,,0.00,WeatherCatV1.10B1784,2013-01-24 03:47:00,
2013-01-23 21:52:00,0.4,-6.7,30.62,North,353,0.0,5.0,71,0.00,,,0.00,WeatherCatV1.10B1784,2013-01-24 03:52:00,
2013-01-23 21:57:00,0.4,-6.7,30.62,NNW,339,1.0,2.0,71,0.00,,,0.00,WeatherCatV1.10B1784,2013-01-24 03:57:00,
2013-01-23 22:02:00,0.2,-7.2,30.62,North,0,0.0,4.0,70,0.00,,,0.00,WeatherCatV1.10B1784,2013-01-24 04:02:00,
2013-01-23 22:07:00,0.2,-7.5,30.63,NW,325,0.0,3.0,69,0.00,,,0.00,WeatherCatV1.10B1784,2013-01-24 04:07:00,
2013-01-23 22:12:00,0.1,-7.6,30.63,North,353,1.0,4.0,69,0.00,,,0.00,WeatherCatV1.10B1784,2013-01-24 04:12:00,
2013-01-23 22:17:00,-0.1,-7.8,30.64,NW,312,1.0,5.0,69,0.00,,,0.00,WeatherCatV1.10B1784,2013-01-24 04:17:00,
2013-01-23 22:22:00,-0.3,-8.0,30.63,NNW,342,0.0,4.0,69,0.00,,,0.00,WeatherCatV1.10B1784,2013-01-24 04:22:00,
2013-01-23 22:27:00,-0.4,-8.4,30.63,NNW,331,0.0,0.0,68,0.00,,,0.00,WeatherCatV1.10B1784,2013-01-24 04:27:00,
2013-01-23 22:32:00,-0.5,-8.2,30.63,NNW,338,2.0,5.0,69,0.00,,,0.00,WeatherCatV1.10B1784,2013-01-24 04:32:00,
2013-01-23 22:37:00,-0.6,-8.3,30.62,East,82,1.0,7.0,69,0.00,,,0.00,WeatherCatV1.10B1784,2013-01-24 04:37:00,
2013-01-23 22:42:00,-0.7,-8.4,30.63,NNE,19,0.0,1.0,69,0.00,,,0.00,WeatherCatV1.10B1784,2013-01-24 04:42:00,
2013-01-23 22:47:00,-0.8,-8.5,30.63,NNE,23,0.0,3.0,69,0.00,,,0.00,WeatherCatV1.10B1784,2013-01-24 04:47:00,
2013-01-23 22:52:00,-0.9,-8.6,30.63,NNW,343,3.0,3.0,69,0.00,,,0.00,WeatherCatV1.10B1784,2013-01-24 04:52:00,
2013-01-23 22:57:00,-1.0,-8.4,30.63,East,99,3.0,4.0,70,0.00,,,0.00,WeatherCatV1.10B1784,2013-01-24 04:57:00,
2013-01-23 23:00:00,-1.1,-8.5,30.63,ENE,69,2.0,3.0,70,0.00,,,0.00,WeatherCatV1.10B1784,2013-01-24 05:00:00,
2013-01-23 23:05:00,-1.2,-8.9,30.63,North,350,0.0,3.0,69,0.00,,,0.00,WeatherCatV1.10B1784,2013-01-24 05:05:00,
2013-01-23 23:10:00,-1.4,-9.1,30.63,NNE,16,3.0,3.0,69,0.00,,,0.00,WeatherCatV1.10B1784,2013-01-24 05:10:00,
2013-01-23 23:15:00,-1.5,-9.2,30.64,NNE,14,3.0,5.0,69,0.00,,,0.00,WeatherCatV1.10B1784,2013-01-24 05:15:00,
2013-01-23 23:20:00,-1.6,-9.0,30.64,North,356,3.0,5.0,70,0.00,,,0.00,WeatherCatV1.10B1784,2013-01-24 05:20:00,
2013-01-23 23:25:00,-1.8,-9.2,30.64,NNW,341,0.0,3.0,70,0.00,,,0.00,WeatherCatV1.10B1784,2013-01-24 05:25:00,
2013-01-23 23:30:00,-1.9,-9.3,30.64,North,0,1.0,6.0,70,0.00,,,0.00,WeatherCatV1.10B1784,2013-01-24 05:30:00,
2013-01-23 23:35:00,-2.0,-9.3,30.64,NE,39,1.0,6.0,70,0.00,,,0.00,WeatherCatV1.10B1784,2013-01-24 05:35:00,
2013-01-23 23:40:00,-2.1,-9.2,30.64,North,10,2.0,4.0,71,0.00,,,0.00,WeatherCatV1.10B1784,2013-01-24 05:40:00,
2013-01-23 23:45:00,-2.3,-9.3,30.64,North,0,2.0,6.0,71,0.00,,,0.00,WeatherCatV1.10B1784,2013-01-24 05:45:00,
2013-01-23 23:50:00,-2.3,-9.3,30.64,North,10,2.0,3.0,71,0.00,,,0.00,WeatherCatV1.10B1784,2013-01-24 05:50:00,
2013-01-23 23:55:00,-2.4,-10.0,30.64,NNW,327,1.0,3.0,69,0.00,,,0.00,WeatherCatV1.10B1784,2013-01-24 05:55:00,